• In Hungary
  • List of Countries
  • For 7 days
  • Water Temperature
  • Satellite Maps
  • Weather Map
  • News
  • Weather Widgets
  • user-avatar
    Login

    Hourly Weather Malye Izori

    Today, 22 October, Monday

    Time Temperature Precipitation Wind Pressure Humidity
    00:00 +4°C° 0 mm 2 mps 757 mmHg 90%
    01:00 +4°C° 0 mm 2 mps 757 mmHg 90%
    02:00 +2°C° 0 mm 3 mps 757 mmHg 89%
    03:00 +2°C° 0 mm 3 mps 756 mmHg 89%
    04:00 +2°C° 0 mm 3 mps 756 mmHg 89%
    05:00 +2°C° 0 mm 3 mps 756 mmHg 90%
    06:00 +3°C° 0 mm 4 mps 755 mmHg 88%
    07:00 +3°C° 0 mm 4 mps 755 mmHg 87%
    08:00 +2°C° 0 mm 5 mps 754 mmHg 84%
    09:00 +3°C° 0 mm 5 mps 754 mmHg 80%
    10:00 +6°C° 0 mm 5 mps 753 mmHg 75%
    11:00 +7°C° 0 mm 5 mps 753 mmHg 71%
    12:00 +7°C° 0 mm 5 mps 752 mmHg 70%
    13:00 +8°C° 0 mm 5 mps 751 mmHg 68%
    14:00 +8°C° 0 mm 5 mps 751 mmHg 67%
    15:00 +8°C° 0 mm 5 mps 750 mmHg 70%
    16:00 +7°C° 0 mm 5 mps 749 mmHg 73%
    17:00 +7°C° 0 mm 4 mps 749 mmHg 76%
    18:00 +7°C° 0.4 mm 4 mps 748 mmHg 78%
    19:00 +7°C° 0.4 mm 4 mps 748 mmHg 81%
    20:00 +7°C° 0.4 mm 4 mps 747 mmHg 84%
    21:00 +6°C° 0.8 mm 4 mps 747 mmHg 86%
    22:00 +6°C° 0.8 mm 4 mps 747 mmHg 88%
    23:00 +7°C° 0.8 mm 3 mps 746 mmHg 91%

    Tomorrow, 23 October, Tuesday

    Time Temperature Precipitation Wind Pressure Humidity
    00:00 +7°C° 0.3 mm 3 mps 746 mmHg 90%
    01:00 +7°C° 0.3 mm 3 mps 746 mmHg 89%
    02:00 +7°C° 0.3 mm 3 mps 745 mmHg 89%
    03:00 +5°C° 0 mm 3 mps 745 mmHg 90%
    04:00 +4°C° 0 mm 3 mps 745 mmHg 92%
    05:00 +4°C° 0 mm 2 mps 745 mmHg 93%
    06:00 +4°C° 0 mm 2 mps 745 mmHg 93%
    07:00 +3°C° 0 mm 2 mps 745 mmHg 93%
    08:00 +3°C° 0 mm 2 mps 744 mmHg 93%
    09:00 +4°C° 0 mm 2 mps 744 mmHg 87%
    10:00 +5°C° 0 mm 2 mps 744 mmHg 81%
    11:00 +5°C° 0 mm 3 mps 743 mmHg 76%
    12:00 +7°C° 0 mm 3 mps 742 mmHg 73%
    13:00 +7°C° 0 mm 3 mps 741 mmHg 70%
    14:00 +7°C° 0 mm 3 mps 740 mmHg 68%
    15:00 +7°C° 0 mm 3 mps 739 mmHg 71%
    16:00 +5°C° 0 mm 3 mps 738 mmHg 74%
    17:00 +4°C° 0 mm 3 mps 737 mmHg 77%
    18:00 +4°C° 0 mm 3 mps 736 mmHg 78%
    19:00 +4°C° 0 mm 4 mps 735 mmHg 79%
    20:00 +4°C° 0 mm 4 mps 735 mmHg 81%
    21:00 +4°C° 0 mm 4 mps 733 mmHg 81%
    22:00 +3°C° 0 mm 4 mps 732 mmHg 82%
    23:00 +2°C° 0 mm 5 mps 731 mmHg 82%

    Day after tomorrow, 24 October, Wednesday

    Time Temperature Precipitation Wind Pressure Humidity
    00:00 +3°C° 0.2 mm 5 mps 730 mmHg 82%
    01:00 +3°C° 0.2 mm 5 mps 729 mmHg 83%
    02:00 +3°C° 0.2 mm 5 mps 728 mmHg 83%
    03:00 +3°C° 0.5 mm 5 mps 727 mmHg 83%
    04:00 +4°C° 0.5 mm 4 mps 727 mmHg 84%
    05:00 +4°C° 0.5 mm 4 mps 726 mmHg 85%
    06:00 +4°C° 0.2 mm 4 mps 726 mmHg 86%
    07:00 +4°C° 0.2 mm 3 mps 726 mmHg 86%
    08:00 +4°C° 0.2 mm 3 mps 726 mmHg 87%
    09:00 +4°C° 0.2 mm 3 mps 726 mmHg 86%
    10:00 +5°C° 0.2 mm 3 mps 726 mmHg 84%
    11:00 +6°C° 0.2 mm 2 mps 727 mmHg 83%
    12:00 +5°C° 0.3 mm 3 mps 727 mmHg 83%
    13:00 +5°C° 0.3 mm 3 mps 727 mmHg 82%
    14:00 +5°C° 0.3 mm 3 mps 728 mmHg 82%
    15:00 +5°C° 0.2 mm 3 mps 728 mmHg 83%
    16:00 +4°C° 0.2 mm 3 mps 729 mmHg 84%
    17:00 +4°C° 0.2 mm 3 mps 729 mmHg 85%
    18:00 +4°C° 0.1 mm 3 mps 730 mmHg 85%
    19:00 +4°C° 0.1 mm 3 mps 731 mmHg 85%
    20:00 +4°C° 0.1 mm 3 mps 731 mmHg 85%
    21:00 +3°C° 0 mm 3 mps 731 mmHg 86%
    22:00 +3°C° 0 mm 3 mps 732 mmHg 87%
    23:00 +3°C° 0 mm 3 mps 732 mmHg 87%

    25 October, Thursday

    Time Temperature Precipitation Wind Pressure Humidity
    00:00 +2°C° 0 mm 3 mps 732 mmHg 89%
    01:00 +2°C° 0 mm 3 mps 732 mmHg 90%
    02:00 +1°C° 0 mm 3 mps 732 mmHg 91%
    03:00 0°C° 0 mm 4 mps 732 mmHg 92%
    04:00 0°C° 0 mm 4 mps 732 mmHg 92%
    05:00 0°C° 0 mm 4 mps 732 mmHg 93%
    06:00 0°C° 0 mm 4 mps 732 mmHg 92%
    07:00 0°C° 0 mm 4 mps 732 mmHg 91%
    08:00 0°C° 0 mm 4 mps 732 mmHg 89%
    09:00 0°C° 0 mm 4 mps 732 mmHg 87%
    10:00 0°C° 0 mm 4 mps 732 mmHg 85%
    11:00 +1°C° 0 mm 5 mps 731 mmHg 83%
    12:00 +1°C° 0 mm 5 mps 731 mmHg 80%
    13:00 +2°C° 0 mm 5 mps 731 mmHg 77%
    14:00 +2°C° 0 mm 5 mps 731 mmHg 74%
    15:00 +2°C° 0 mm 5 mps 731 mmHg 75%
    16:00 +1°C° 0 mm 5 mps 731 mmHg 76%
    17:00 +1°C° 0 mm 5 mps 732 mmHg 76%
    18:00 +1°C° 0 mm 5 mps 732 mmHg 77%
    19:00 +1°C° 0 mm 5 mps 732 mmHg 78%
    20:00 0°C° 0 mm 5 mps 732 mmHg 78%
    21:00 0°C° 0 mm 5 mps 733 mmHg 80%
    22:00 0°C° 0 mm 4 mps 733 mmHg 82%
    23:00 -1°C° 0 mm 4 mps 734 mmHg 85%

    26 October, Friday

    Time Temperature Precipitation Wind Pressure Humidity
    00:00 -1°C° 0 mm 4 mps 734 mmHg 86%
    01:00 -1°C° 0 mm 4 mps 735 mmHg 88%
    02:00 -1°C° 0 mm 4 mps 735 mmHg 90%
    03:00 -1°C° 0 mm 4 mps 735 mmHg 91%
    04:00 0°C° 0 mm 3 mps 736 mmHg 92%
    05:00 0°C° 0 mm 3 mps 736 mmHg 94%
    06:00 0°C° 0 mm 3 mps 737 mmHg 93%
    07:00 0°C° 0 mm 3 mps 737 mmHg 92%
    08:00 0°C° 0 mm 3 mps 738 mmHg 91%
    09:00 0°C° 0 mm 4 mps 738 mmHg 88%
    10:00 +1°C° 0 mm 4 mps 738 mmHg 85%
    11:00 +3°C° 0 mm 4 mps 739 mmHg 82%
    12:00 +3°C° 0 mm 4 mps 739 mmHg 79%
    13:00 +3°C° 0 mm 4 mps 739 mmHg 76%
    14:00 +4°C° 0 mm 4 mps 740 mmHg 74%
    15:00 +3°C° 0 mm 3 mps 740 mmHg 77%
    16:00 +3°C° 0 mm 3 mps 741 mmHg 80%
    17:00 +3°C° 0 mm 2 mps 741 mmHg 83%
    18:00 +3°C° 0 mm 2 mps 741 mmHg 85%
    19:00 +2°C° 0 mm 2 mps 742 mmHg 88%
    20:00 +2°C° 0 mm 2 mps 742 mmHg 90%
    21:00 +2°C° 0 mm 2 mps 743 mmHg 92%
    22:00 +2°C° 0 mm 2 mps 743 mmHg 93%
    23:00 +1°C° 0 mm 2 mps 743 mmHg 94%

    27 October, Saturday

    Time Temperature Precipitation Wind Pressure Humidity
    00:00 +1°C° 0 mm 2 mps 744 mmHg 95%
    01:00 +1°C° 0 mm 2 mps 744 mmHg 95%
    02:00 +1°C° 0 mm 2 mps 744 mmHg 96%
    03:00 +1°C° 0 mm 2 mps 744 mmHg 95%
    04:00 +1°C° 0 mm 2 mps 744 mmHg 95%
    05:00 +1°C° 0 mm 2 mps 744 mmHg 95%
    06:00 +1°C° 0 mm 2 mps 744 mmHg 93%
    07:00 +1°C° 0 mm 3 mps 744 mmHg 91%
    08:00 +1°C° 0 mm 3 mps 744 mmHg 88%
    09:00 +1°C° 0.3 mm 4 mps 743 mmHg 86%
    10:00 +2°C° 0.3 mm 5 mps 743 mmHg 84%
    11:00 +3°C° 0.3 mm 5 mps 742 mmHg 81%
    12:00 +3°C° 0.4 mm 5 mps 742 mmHg 82%
    13:00 +3°C° 0.4 mm 5 mps 741 mmHg 83%
    14:00 +5°C° 0.4 mm 5 mps 741 mmHg 83%
    15:00 +5°C° 0.4 mm 5 mps 741 mmHg 85%
    16:00 +5°C° 0.4 mm 5 mps 741 mmHg 86%
    17:00 +5°C° 0.4 mm 5 mps 741 mmHg 88%
    18:00 +5°C° 0.1 mm 4 mps 741 mmHg 89%
    19:00 +5°C° 0.1 mm 4 mps 741 mmHg 89%
    20:00 +6°C° 0.1 mm 4 mps 741 mmHg 90%
    21:00 +6°C° 0.1 mm 4 mps 742 mmHg 91%
    22:00 +7°C° 0.1 mm 3 mps 742 mmHg 91%
    23:00 +7°C° 0.1 mm 3 mps 742 mmHg 92%

    28 October, Sunday

    Time Temperature Precipitation Wind Pressure Humidity
    00:00 +5°C° 0 mm 3 mps 743 mmHg 93%
    01:00 +6°C° 0 mm 2 mps 743 mmHg 95%
    02:00 +6°C° 0 mm 2 mps 743 mmHg 96%
    03:00 +6°C° 0.1 mm 2 mps 743 mmHg 97%
    04:00 +6°C° 0.1 mm 1 mps 743 mmHg 97%
    05:00 +6°C° 0.1 mm 1 mps 743 mmHg 98%
    06:00 +6°C° 0.4 mm 1 mps 743 mmHg 97%
    07:00 +6°C° 0.4 mm 1 mps 744 mmHg 97%
    08:00 +6°C° 0.4 mm 1 mps 744 mmHg 97%
    09:00 +6°C° 0.3 mm 2 mps 743 mmHg 96%
    10:00 +6°C° 0.3 mm 2 mps 743 mmHg 95%
    11:00 +6°C° 0.3 mm 2 mps 743 mmHg 93%
    12:00 +5°C° 1.7 mm 3 mps 743 mmHg 93%
    13:00 +5°C° 1.7 mm 3 mps 742 mmHg 93%
    14:00 +5°C° 1.7 mm 3 mps 742 mmHg 93%
    15:00 +5°C° 0.7 mm 3 mps 742 mmHg 93%
    16:00 +5°C° 0.7 mm 3 mps 741 mmHg 93%
    17:00 +5°C° 0.7 mm 3 mps 741 mmHg 93%
    18:00 +5°C° 1.8 mm 3 mps 740 mmHg 94%
    19:00 +7°C° 1.8 mm 3 mps 740 mmHg 94%
    20:00 +7°C° 1.8 mm 3 mps 739 mmHg 95%
    21:00 +8°C° 1 mm 3 mps 739 mmHg 94%
    22:00 +8°C° 1 mm 3 mps 739 mmHg 94%
    23:00 +9°C° 1 mm 3 mps 738 mmHg 93%
    Show more